VANGUARD R/B, 12

Orbit data source: Space-Track

VANGUARD R/B, 12 is space debris in LEO originally from a launch on Tue, 17 Feb 1959 UTC launched from the Air Force Eastern Test Range (AFETR). Debris objects in space refer to the collection of defunct objects orbiting the Earth. Examples of debris include non-operational satellites, rocket bodies, and fragments generated from explosions, collisions, or faulty payload assembly.

Loading next visibility...
Identifier
12, 1959-001B
Orbit
LEO
Last TLE update
21 hours ago
Origin
Manufacturer
GCR/Redlands
Mission
Spacecraft
Bus & Motor
33-KS-2800, Unknown motor
Mass
22 kg wet, 22 kg dry
Launch date (UTC)
1959-02-17 (66 years ago)
Launch vehicle
Unknown
Launch site
Air Force Eastern Test Range (AFETR)
Object type
Payload
Rocket body
Debris
Shape & HBR
Cyl, 1.5 m
Radar Cross Section
1.017 m², Medium (>0.1 m² and < 1m²)

Expand to show TLE details & history

TLE from 21 hours ago
0 VANGUARD R/B
1 00012U 59001B   25181.87710018  .00000486  00000-0  29441-3 0  9998
2 00012  32.9000  22.8026 1647955  45.4263 326.9593 11.47768474490931
Epoch: 2025-06-30T21:03Z
TLE epoch observation values (Epoch: 2025-06-30T21:03:01.455Z)
Latitude
0.00004°
Longitude
147.86599°
Altitude
859.02 km
Speed
7.885 km/s
True Right ascension
01h 31m 12s
True Declination
0° 00' 00"
Sunlit
Object was in daylight at epoch
Visualization orbit readout
Latitude
-29.61322°
Longitude
83.84371°
Altitude
2,309.126 km
Speed
6.619 km/s
Apparent Right ascension
19h 43m 09s
Apparent Declination
-37° 31' 21"
Sunlit
Object is in full shadow
Visualization observer readout
Local Sidereal Time
05:14:58
Azimuth
262.728° W
Elevation
-61.202°
Doppler factor
1
Orbital elements
Apogee altitude
3,295.212 km
Perigee altitude
558.037 km
Semi-major axis
8,304.761 km
Eccentricity
0.1648
Inclination
32.9°
RAAN
22.8026°
Arg. of periapsis
45.4263°
True anomaly
Unknown
Mean anomaly
326.9593°
Eccentric anomaly
Unknown
Mean motion
2.86782 °/min
Orbital period
125.53 mins
BSTAR
0.00029441
Loading maneuver chart data...
Loading SW <> Apogee altitude chart data...
Loading historical data...
Loading historical data...
Loading historical data...
Loading historical data...
Loading historical data...
Loading historical data...
Loading historical data...
Other satellites on launch #1 in the year 1959 (1959-02-17 UTC)

VANGUARD R/B Visibility forecast

Observer location: undefined°, undefined°

Span
Click to sort rows by Start time (UTC) header in descending order
Start Az.
Max El. time (UTC)
Max El. Az.
Max El.
End time (UTC)
End Az.
7 mins2025-07-01 18:12:20.721Z218.725° SW2025-07-01 18:15:20.721Z161.233° S25.388°2025-07-01 18:19:20.721Z106.375° ESE
10 mins2025-07-01 20:24:20.721Z239.545° WSW2025-07-01 20:27:20.721Z180.44° SSW33.655°2025-07-01 20:34:20.721Z114.646° SE
13 mins2025-07-01 22:36:20.721Z240.824° WSW2025-07-01 22:40:20.721Z195.416° SSW26.654°2025-07-01 22:49:20.721Z141.553° SSE
8 mins2025-07-02 00:51:20.721Z224.844° SW2025-07-02 00:54:20.721Z207.741° SW13.671°2025-07-02 00:59:20.721Z184.788° SSW
4 mins2025-07-02 17:10:20.721Z188.335° SSW2025-07-02 17:12:20.721Z149.338° SSE17.79°2025-07-02 17:14:20.721Z118.645° SE
|